Regional Weather Roundup
Issued by NWS

Home | Current Version | Previous Version | Graphics & Text | Print | Product List | Glossary Off
Versions: 1 2 3 4 5 6 7 8 9 10 11 12 13 14 15 16 17 18 19 20 21 22 23 24 25 26 27 28 29 30 31 32 33 34 35 36 37 38 39 40 41 42 43 44 45 46 47 48 49 50

000
ASUS43 KMKX 260421
RWRWI

WISCONSIN REGIONAL WEATHER ROUNDUP
NATIONAL WEATHER SERVICE MILWAUKEE/SULLIVAN WI
1100 PM CDT WED MAY 25 2016

NOTE: "FAIR" INDICATES FEW OR NO CLOUDS BELOW 12,000 FEET WITH NO
SIGNIFICANT WEATHER AND/OR OBSTRUCTIONS TO VISIBILITY.

WIZ001-002-006>008-014>016-023>028-260500-
NORTHWEST WISCONSIN

CITY           SKY/WX    TMP DP  RH WIND       PRES   REMARKS
SUPERIOR ARPT  CLOUDY    44  43  97 NE10G17   29.89F
ASHLAND        CLOUDY    48  48 100 N5        29.88F
HAYWARD        PTCLDY    53  52  96 N3        29.86S
SIREN          CLOUDY    58  57  97 E6        29.85F FOG
CUMBERLAND     FOG       57  55  94 CALM      29.86S VSB 1/2
RICE LAKE      CLEAR     59  57  93 CALM      29.87F
CHETEK         FOG       57  57 100 CALM      29.86S VSB 1/4
LADYSMITH      MOCLDY    59  58  96 N3        29.87S
EAU CLAIRE     FOG       60  60 100 CALM      29.85R VSB 1/2
MENOMONIE        N/A     62  62  99 CALM      29.86S FOG
NEW RICHMOND   CLOUDY    63  63  99 SE7       29.86R FOG
OSCEOLA        CLOUDY    64  64 100 E6        29.87S
$$

WIZ003>005-009-010-017-018-260500-
NORTH CENTRAL WISCONSIN

CITY           SKY/WX    TMP DP  RH WIND       PRES   REMARKS
MANITOWISH WTR NOT AVBL
ARBOR VITAE    RAIN      62  60  94 E5        29.86F
WOODRUFF       RAIN      62  60  94 E5        29.86F
RHINELANDER    LGT RAIN  60  58  92 SE3       29.87R
EAGLE RIVER    RAIN      58  58  99 SE7       29.87F
LAND O LAKES   RAIN      60  59  97 SE9       29.90S
PHILLIPS       CLOUDY    61  61 100 N3        29.84S
TOMAHAWK       CLOUDY    61  59  94 S5        29.86F FOG
MEDFORD        CLOUDY    62  62 100 SW5       29.87R
MERRILL        MOCLDY    61  61 100 S6        29.87F
$$

WIZ029-030-035-036-043>047-260500-
CENTRAL WISCONSIN

CITY           SKY/WX    TMP DP  RH WIND       PRES   REMARKS
WAUSAU         CLOUDY    64  32  30 SW7       29.87R
MOSINEE        CLOUDY    61  61 100 S7        29.90R FOG
MARSHFIELD     CLOUDY    64  61  90 S7        29.87S FOG
STEVENS POINT  PTCLDY    60  59  99 SE7       29.88F FOG
WAUPACA        CLOUDY    63  62  97 SE6       29.89F FOG
WAUTOMA        MOCLDY    61  61 100 SE3       29.89F FOG
WISC RAPIDS    CLOUDY    63  60  90 CALM      29.88F
CAMP DOUGLAS   FOG       61  61 100 SE6       29.87S VSB 3/4
$$

WIZ011>013-019>022-031-037>040-048>050-260500-
NORTHEAST WISCONSIN

CITY           SKY/WX    TMP DP  RH WIND       PRES   REMARKS
ANTIGO         CLOUDY    59  58  99 S12       29.88S
SHAWANO        CLOUDY    61  59  94 E5        29.89F FOG
OCONTO         CLOUDY   N/A N/A N/A SE3       29.90F
STURGEON BAY   NOT AVBL
GREEN BAY      CLOUDY    61  59  93 E5        29.89F FOG
MANITOWOC      RAIN      56  55  97 CALM      29.92F FOG
APPLETON       LGT RAIN  61  61 100 E3        29.90R
CLINTONVILLE   CLOUDY    59  59 100 SE6       29.89F FOG
OSHKOSH        CLOUDY    61  59  93 CALM      29.89F FOG
$$

WIZ032>034-041-042-053>061-260500-
SOUTHWEST WISCONSIN

CITY           SKY/WX    TMP DP  RH WIND       PRES   REMARKS
LA CROSSE      CLEAR     67  64  90 SE5       29.84R
SPARTA         CLEAR     64  64 100 CALM      29.87S FOG
VIROQUA        CLEAR     68  62  79 S6        29.89S
BOSCOBEL       CLEAR     64  62  93 CALM      29.87S
PRAIRIE DU CHI PTCLDY    67  60  79 CALM      29.86S
PLATTEVILLE    CLEAR     70  58  67 S6        29.90S
$$

WIZ056-057-062-063-064-067-068-260500-
SOUTH CENTRAL WISCONSIN

CITY           SKY/WX    TMP DP  RH WIND       PRES   REMARKS
REEDSBURG      MOCLDY    65  65 100 CALM      29.88S
BARABOO/DELLS  MOCLDY    64  62  93 CALM      29.89S FOG
LONE ROCK      CLEAR     68  62  81 E3        29.88R
MINERAL POINT  PTCLDY    72  57  60 S6        29.90S
MADISON        MOCLDY    69  63  81 S7        29.89S
MIDDLETON      MOCLDY    71  64  78 SW8       29.90S
WATERTOWN      PTCLDY    65  65 100 CALM      29.90S
MONROE         CLEAR     64  63  94 S7        29.91S
JANESVILLE     CLEAR     68  64  88 S9        29.90S
$$

WIZ051-052-058>065-066-070>072-260500-
SOUTHEAST WISCONSIN

CITY           SKY/WX    TMP DP  RH WIND       PRES   REMARKS
MILWAUKEE      CLOUDY    59  57  93 SE7       29.93R
WAUKESHA       MOCLDY    61  59  94 SE6       29.93S FOG
MILWAUKEE/TIMM CLOUDY    55  54  94 CALM      29.94S FOG
RACINE         CLOUDY    63  60  90 S12       29.94S
BURLINGTON     PTCLDY    63  63  97 CALM      29.92S
KENOSHA        CLOUDY    66  63  90 S8        29.93S
FOND DU LAC    CLOUDY    62  61  96 CALM      29.89F FOG
SHEBOYGAN      CLOUDY    55  54  96 CALM      29.92F FOG
WEST BEND      CLOUDY    59  57  94 S7        29.91F FOG
JUNEAU         PTCLDY    62  61  95 SE7       29.91F FOG
$$

LSZ147-162-260500-
LAKE SUPERIOR

STATION/POSITION TIME  TEMP    WIND        PRES    WAVE
                       AIR SEA DIR/SP/G            HT/PER
                 (UTC) (F)     (DEG/KT/KT) (MB)    (FT/S)
W MID LAKE BUOY  0350   40 38   80/ 14/ 16 1013.8F   3/ 5
DEVILS ISLAND    0400   42      80/ 13/ 16 1012.7F
PORT WING        0240   43      70/  4/ 16 1011.9
SAXON HARBOR     0300   47      70/  6/ 12 1012.2F
$$

LMZ867-665-643>646-260500-
LAKE MICHIGAN

STATION/POSITION TIME  TEMP    WIND        PRES    WAVE
                       AIR SEA DIR/SP/G            HT/PER
                 (UTC) (F)     (DEG/KT/KT) (MB)    (FT/S)
CHAMBERS ISLAND  0300   56      CALM  /  3 1013.2
N MID LAKE BUOY  0350   50 45  120/ 10/ 10 1012.5F   1/ 3
NORTHPORT PIER   0300   54     150/  4/  5 1013.2S
SISTER BAY       0334   55     160/  6/  7   N/A
ALGOMA LAKESHORE 0317             CALM       N/A
KEWAUNEE LAKESHO 0300   55                   N/A
SHEBOYGAN LAKESH 0400   51     350/  4/  6 1013.9F
PORT WASHINGTON  0300   55      20/  2/  4 1014.2F
S MID LAKE BUOY  0350   57 49  130/ 16/ 16 1013.4F   1/ 3
KENOSHA   LAKESH 0400   59     180/ 10/ 14 1013.2F
$$

TC  - TEMPERATURE IN CELSIUS
VSB - VISIBILITY IN STATUTE MILES
WCI - WIND CHILL INDEX
HX  - HEAT INDEX




USA.gov is the U.S. government's official web portal to all federal, state and local government web resources and services.